| time (UTC) | temp F | wind direction | speed MPH | gust MPH | rain 1hr in | rain 24hr in | rain mn in | humidity % | barometer mb |
| 20260503071551 | 60 | 211 | 2.0 | 5.0 | 0.00 | 1.30 | 0.06 | 94 | 1009.5 |
| 20260503071043 | 59 | 184 | 3.0 | 5.0 | 0.00 | 1.30 | 0.06 | 94 | 1009.3 |
| 20260503070536 | 59 | 155 | 1.0 | 5.0 | 0.00 | 1.30 | 0.06 | 94 | 1009.3 |
| 20260503055027 | 57 | 88 | 1.0 | 2.0 | 0.00 | 1.26 | 0.05 | 95 | 1009.6 |
| 20260503054534 | 57 | 157 | 0.0 | 2.0 | 0.00 | 1.26 | 0.05 | 95 | 1009.6 |
| 20260503054046 | 57 | 153 | 0.0 | 2.0 | 0.00 | 1.26 | 0.05 | 95 | 1009.6 |
| 20260503053557 | 57 | 171 | 1.0 | 3.0 | 0.00 | 1.26 | 0.05 | 95 | 1009.7 |
| 20260503053050 | 57 | 188 | 1.0 | 4.0 | 0.00 | 1.26 | 0.05 | 95 | 1009.8 |
| 20260503052547 | 57 | 182 | 1.0 | 4.0 | 0.00 | 1.26 | 0.05 | 95 | 1009.8 |
| 20260503052037 | 57 | 177 | 1.0 | 4.0 | 0.00 | 1.26 | 0.05 | 95 | 1009.8 |
| 20260503051537 | 57 | 169 | 1.0 | 4.0 | 0.00 | 1.26 | 0.05 | 95 | 1009.8 |
| 20260503051035 | 57 | 149 | 1.0 | 4.0 | 0.00 | 1.26 | 0.05 | 95 | 1009.9 |
| 20260503050534 | 57 | 165 | 1.0 | 2.0 | 0.00 | 1.26 | 0.05 | 95 | 1009.8 |
| 20260503050045 | 56 | 209 | 1.0 | 2.0 | 0.00 | 1.26 | 0.05 | 95 | 1009.9 |
| 20260503045532 | 56 | 173 | 0.0 | 1.0 | 0.00 | 1.26 | 0.05 | 95 | 1009.7 |
| 20260503045051 | 56 | 173 | 0.0 | 2.0 | 0.00 | 1.26 | 0.05 | 95 | 1009.7 |
| 20260503044607 | 56 | 173 | 1.0 | 3.0 | 0.00 | 1.26 | 0.05 | 95 | 1009.8 |
| 20260503044046 | 56 | 164 | 0.0 | 2.0 | 0.00 | 1.26 | 0.05 | 95 | 1009.8 |
| 20260503043546 | 56 | 164 | 0.0 | 3.0 | 0.00 | 1.26 | 0.05 | 94 | 1009.8 |
| 20260503043042 | 56 | 164 | 0.0 | 3.0 | 0.00 | 1.26 | 0.05 | 95 | 1009.8 |
| 20260503042544 | 56 | 164 | 1.0 | 2.0 | 0.00 | 1.26 | 0.05 | 95 | 1009.9 |
| 20260503042037 | 57 | 164 | 1.0 | 4.0 | 0.04 | 1.26 | 0.05 | 95 | 1009.8 |
| 20260503041544 | 57 | 195 | 2.0 | 4.0 | 0.04 | 1.26 | 0.05 | 94 | 1009.8 |
| 20260503041047 | 57 | 163 | 0.0 | 3.0 | 0.04 | 1.26 | 0.05 | 94 | 1009.8 |
| 20260503040548 | 57 | 160 | 0.0 | 3.0 | 0.08 | 1.26 | 0.05 | 94 | 1009.8 |
| 20260503040034 | 57 | 111 | 0.0 | 1.0 | 0.12 | 1.26 | 0.05 | 94 | 1009.8 |
| 20260503035602 | 57 | 109 | 0.0 | 1.0 | 0.16 | 1.26 | 0.05 | 94 | 1009.8 |
| 20260503035031 | 57 | 109 | 0.0 | 1.0 | 0.16 | 1.26 | 0.05 | 94 | 1009.8 |
| 20260503034542 | 57 | 168 | 0.0 | 2.0 | 0.16 | 1.26 | 0.05 | 95 | 1009.9 |
| 20260503034044 | 57 | 209 | 0.0 | 3.0 | 0.16 | 1.26 | 0.05 | 94 | 1009.9 |
| 20260503033535 | 57 | 188 | 1.0 | 3.0 | 0.16 | 1.26 | 0.05 | 94 | 1010.0 |
| 20260503033038 | 57 | 132 | 0.0 | 2.0 | 0.16 | 1.26 | 0.05 | 94 | 1009.8 |
| 20260503032535 | 57 | 115 | 1.0 | 2.0 | 0.20 | 1.26 | 0.05 | 94 | 1010.0 |
| 20260503032041 | 57 | 115 | 0.0 | 3.0 | 0.16 | 1.22 | 0.04 | 94 | 1010.2 |
| 20260503031531 | 57 | 93 | 2.0 | 3.0 | 0.16 | 1.22 | 0.04 | 94 | 1010.2 |
| 20260503031035 | 57 | 159 | 1.0 | 2.0 | 0.16 | 1.22 | 0.04 | 94 | 1010.4 |
| 20260503030609 | 57 | 146 | 1.0 | 3.0 | 0.12 | 1.18 | 0.03 | 94 | 1010.4 |
| 20260503030058 | 57 | 143 | 1.0 | 4.0 | 0.08 | 1.14 | 0.02 | 94 | 1010.5 |
| 20260503025535 | 57 | 140 | 2.0 | 3.0 | 0.04 | 1.10 | 0.02 | 94 | 1010.9 |
| 20260503025059 | 57 | 159 | 1.0 | 4.0 | 0.04 | 1.10 | 0.02 | 94 | 1010.8 |
| 20260503024545 | 57 | 144 | 1.0 | 4.0 | 0.04 | 1.10 | 0.02 | 94 | 1010.9 |
| 20260503024037 | 57 | 219 | 1.0 | 4.0 | 0.04 | 1.10 | 0.02 | 94 | 1011.0 |
| 20260503023559 | 57 | 151 | 1.0 | 4.0 | 0.04 | 1.10 | 0.02 | 94 | 1011.0 |
| 20260503023035 | 57 | 173 | 1.0 | 5.0 | 0.04 | 1.10 | 0.02 | 94 | 1011.1 |
| 20260503022556 | 57 | 215 | 3.0 | 7.0 | 0.00 | 1.06 | 0.01 | 94 | 1011.1 |
| 20260503022046 | 57 | 200 | 3.0 | 7.0 | 0.00 | 1.06 | 0.01 | 94 | 1011.1 |
| 20260503021548 | 57 | 199 | 3.0 | 6.0 | 0.00 | 1.06 | 0.01 | 94 | 1011.1 |
| 20260503021021 | 57 | 188 | 3.0 | 6.0 | 0.00 | 1.06 | 0.01 | 94 | 1011.1 |
| 20260503020544 | 57 | 242 | 3.0 | 5.0 | 0.00 | 1.06 | 0.01 | 94 | 1011.1 |
| 20260503020034 | 57 | 129 | 2.0 | 5.0 | 0.00 | 1.06 | 0.01 | 94 | 1010.9 |
| 20260503015559 | 57 | 153 | 2.0 | 5.0 | 0.00 | 1.06 | 0.01 | 94 | 1011.0 |
| 20260503015042 | 57 | 171 | 1.0 | 4.0 | 0.00 | 1.06 | 0.01 | 94 | 1011.0 |
| 20260503014539 | 57 | 161 | 2.0 | 4.0 | 0.00 | 1.06 | 0.01 | 94 | 1011.0 |
| 20260503014042 | 57 | 164 | 1.0 | 4.0 | 0.00 | 1.06 | 0.01 | 94 | 1011.1 |
| 20260503013538 | 57 | 192 | 1.0 | 4.0 | 0.00 | 1.06 | 0.01 | 94 | 1011.0 |
| 20260503013032 | 57 | 153 | 0.0 | 3.0 | 0.00 | 1.06 | 0.01 | 94 | 1011.0 |
| 20260503012531 | 57 | 154 | 0.0 | 2.0 | 0.00 | 1.06 | 0.01 | 94 | 1011.0 |
| 20260503012047 | 57 | 143 | 0.0 | 2.0 | 0.00 | 1.06 | 0.01 | 94 | 1010.9 |
| 20260503011546 | 57 | 153 | 1.0 | 2.0 | 0.00 | 1.06 | 0.01 | 94 | 1010.9 |
| 20260503011035 | 56 | 142 | 0.0 | 2.0 | 0.00 | 1.06 | 0.01 | 94 | 1010.8 |
| 20260503010545 | 56 | 142 | 0.0 | 2.0 | 0.00 | 1.06 | 0.01 | 94 | 1010.9 |
| 20260503010030 | 56 | 86 | 1.0 | 2.0 | 0.00 | 1.06 | 0.01 | 93 | 1010.9 |
| 20260503005613 | 56 | 128 | 1.0 | 2.0 | 0.00 | 1.06 | 0.01 | 93 | 1010.9 |
| 20260503005041 | 57 | 115 | 0.0 | 5.0 | 0.00 | 1.06 | 0.01 | 93 | 1011.0 |
| 20260503004622 | 56 | 100 | 0.0 | 5.0 | 0.00 | 1.06 | 0.01 | 93 | 1011.0 |
| 20260503004047 | 56 | 189 | 1.0 | 3.0 | 0.00 | 1.06 | 0.01 | 93 | 1011.0 |
| 20260503003537 | 57 | 86 | 1.0 | 2.0 | 0.00 | 1.06 | 0.01 | 93 | 1011.1 |
| 20260503003025 | 57 | 71 | 0.0 | 2.0 | 0.00 | 1.06 | 0.01 | 93 | 1011.1 |
| 20260503002536 | 57 | 71 | 1.0 | 3.0 | 0.00 | 1.06 | 0.01 | 93 | 1011.1 |
| 20260503002056 | 57 | 117 | 1.0 | 2.0 | 0.00 | 1.06 | 0.01 | 93 | 1011.1 |
| 20260503001532 | 57 | 204 | 1.0 | 2.0 | 0.00 | 1.06 | 0.01 | 94 | 1011.2 |
| 20260503001029 | 57 | 151 | 1.0 | 3.0 | 0.00 | 1.06 | 0.01 | 93 | 1011.1 |
| 20260503000544 | 57 | 88 | 0.0 | 3.0 | 0.00 | 1.06 | 0.01 | 93 | 1011.2 |
| 20260503000039 | 57 | 76 | 1.0 | 3.0 | 0.00 | 1.06 | 0.01 | 93 | 1011.2 |
| 20260502235601 | 57 | 90 | 1.0 | 5.0 | 0.00 | 1.06 | 0.01 | 93 | 1011.3 |
| 20260502235049 | 57 | 103 | 1.0 | 3.0 | 0.00 | 1.06 | 0.01 | 93 | 1011.4 |
| 20260502234543 | 57 | 98 | 2.0 | 3.0 | 0.00 | 1.06 | 0.01 | 93 | 1011.5 |
| 20260502234027 | 57 | 83 | 1.0 | 3.0 | 0.00 | 1.06 | 0.01 | 93 | 1011.7 |
| 20260502233537 | 57 | 94 | 1.0 | 3.0 | 0.00 | 1.06 | 0.01 | 93 | 1011.8 |
| 20260502233024 | 57 | 124 | 1.0 | 2.0 | 0.00 | 1.06 | 0.01 | 93 | 1011.8 |
| 20260502232534 | 57 | 130 | 0.0 | 3.0 | 0.00 | 1.06 | 0.01 | 93 | 1011.8 |
| 20260502232052 | 57 | 94 | 1.0 | 3.0 | 0.00 | 1.06 | 0.01 | 93 | 1011.8 |
| 20260502231550 | 57 | 124 | 1.0 | 3.0 | 0.00 | 1.06 | 0.01 | 93 | 1011.8 |
| 20260502231104 | 57 | 104 | 1.0 | 3.0 | 0.00 | 1.06 | 0.01 | 93 | 1011.8 |
| 20260502230601 | 57 | 90 | 1.0 | 3.0 | 0.00 | 1.06 | 0.01 | 93 | 1011.8 |
| 20260502230054 | 57 | 101 | 1.0 | 3.0 | 0.04 | 1.06 | 0.01 | 93 | 1011.8 |
| 20260502225546 | 57 | 93 | 2.0 | 5.0 | 0.08 | 1.06 | 0.01 | 93 | 1011.9 |
| 20260502225104 | 57 | 62 | 2.0 | 5.0 | 0.16 | 1.06 | 0.01 | 93 | 1011.9 |
| 20260502224551 | 57 | 49 | 1.0 | 3.0 | 0.28 | 1.06 | 0.01 | 93 | 1012.0 |
| 20260502224048 | 57 | 129 | 0.0 | 3.0 | 0.35 | 1.06 | 0.01 | 92 | 1012.1 |
| 20260502223533 | 57 | 140 | 1.0 | 3.0 | 0.39 | 1.06 | 0.01 | 92 | 1012.1 |
| 20260502223103 | 57 | 192 | 0.0 | 2.0 | 0.47 | 1.06 | 0.01 | 92 | 1012.1 |
| 20260502222530 | 56 | 192 | 0.0 | 2.0 | 0.55 | 1.06 | 0.01 | 92 | 1012.0 |
| 20260502222052 | 56 | 115 | 1.0 | 3.0 | 0.63 | 1.06 | 0.01 | 92 | 1011.9 |
| 20260502221549 | 56 | 86 | 1.0 | 6.0 | 0.83 | 1.06 | 0.01 | 91 | 1012.1 |
| 20260502221035 | 57 | 50 | 3.0 | 8.0 | 0.94 | 1.06 | 0.01 | 91 | 1012.1 |
| 20260502220541 | 57 | 92 | 2.0 | 9.0 | 1.02 | 1.06 | 0.01 | 91 | 1012.2 |
| 20260502220037 | 57 | 19 | 4.0 | 9.0 | 1.02 | 1.02 | 0.00 | 91 | 1012.0 |
| 20260502215547 | 57 | 70 | 3.0 | 7.0 | 0.98 | 0.98 | 0.20 | 91 | 1012.2 |
| 20260502215043 | 57 | 115 | 4.0 | 9.0 | 0.91 | 0.91 | 0.18 | 90 | 1012.4 |
| 20260502214538 | 57 | 68 | 3.0 | 9.0 | 0.79 | 0.79 | 0.16 | 90 | 1012.4 |
| 20260502214028 | 58 | 60 | 3.0 | 7.0 | 0.71 | 0.71 | 0.14 | 89 | 1012.7 |
| 20260502213602 | 58 | 94 | 3.0 | 7.0 | 0.63 | 0.63 | 0.13 | 89 | 1013.1 |
| 20260502213031 | 58 | 97 | 2.0 | 4.0 | 0.55 | 0.55 | 0.11 | 88 | 1013.3 |
| 20260502212541 | 58 | 78 | 2.0 | 3.0 | 0.51 | 0.51 | 0.10 | 87 | 1013.5 |
| 20260502212059 | 59 | 38 | 1.0 | 3.0 | 0.43 | 0.43 | 0.09 | 85 | 1013.9 |
| 20260502211554 | 59 | 94 | 2.0 | 7.0 | 0.20 | 0.20 | 0.04 | 81 | 1014.1 |
| 20260502211041 | 60 | 186 | 3.0 | 7.0 | 0.08 | 0.08 | 0.02 | 77 | 1014.3 |
| 20260502210538 | 61 | 227 | 3.0 | 27.0 | 0.04 | 0.04 | 0.01 | 72 | 1014.2 |
| 20260502210026 | 61 | 222 | 10.0 | 27.0 | 0.00 | 0.00 | 0.00 | 69 | 1014.4 |
| 20260502205555 | 61 | 180 | 5.0 | 9.0 | 0.00 | 0.00 | 0.00 | 66 | 1013.9 |
| 20260502205022 | 61 | 23 | 4.0 | 10.0 | 0.00 | 0.00 | 0.00 | 65 | 1012.5 |
| 20260502204546 | 61 | 326 | 2.0 | 7.0 | 0.00 | 0.00 | 0.00 | 65 | 1012.5 |
| 20260502204058 | 61 | 37 | 3.0 | 7.0 | 0.00 | 0.00 | 0.00 | 65 | 1012.5 |
| 20260502203544 | 61 | 76 | 2.0 | 6.0 | 0.00 | 0.00 | 0.00 | 65 | 1012.6 |
| 20260502203028 | 61 | 5 | 2.0 | 8.0 | 0.00 | 0.00 | 0.00 | 65 | 1012.6 |
| 20260502202612 | 61 | 55 | 3.0 | 8.0 | 0.00 | 0.00 | 0.00 | 64 | 1012.7 |
| 20260502202027 | 61 | 83 | 2.0 | 4.0 | 0.00 | 0.00 | 0.00 | 64 | 1012.8 |
| 20260502201557 | 61 | 67 | 2.0 | 4.0 | 0.00 | 0.00 | 0.00 | 64 | 1012.8 |
| 20260502201037 | 60 | 40 | 2.0 | 5.0 | 0.00 | 0.00 | 0.00 | 67 | 1012.8 |
| 20260502200529 | 60 | 28 | 2.0 | 5.0 | 0.00 | 0.00 | 0.00 | 68 | 1012.9 |
| 20260502200044 | 60 | 26 | 2.0 | 3.0 | 0.00 | 0.00 | 0.00 | 68 | 1013.0 |
| 20260502195544 | 60 | 360 | 1.0 | 3.0 | 0.00 | 0.00 | 0.00 | 68 | 1013.0 |
| 20260502195033 | 60 | 9 | 1.0 | 2.0 | 0.00 | 0.00 | 0.00 | 68 | 1013.0 |
| 20260502194534 | 60 | 9 | 1.0 | 2.0 | 0.00 | 0.00 | 0.00 | 67 | 1013.0 |
| 20260502194052 | 60 | 9 | 0.0 | 1.0 | 0.00 | 0.00 | 0.00 | 67 | 1013.0 |
| 20260502193545 | 60 | 9 | 0.0 | 1.0 | 0.00 | 0.00 | 0.00 | 67 | 1013.1 |
| 20260502193033 | 60 | 9 | 0.0 | 2.0 | 0.00 | 0.00 | 0.00 | 66 | 1013.1 |
| 20260502192556 | 61 | 9 | 1.0 | 2.0 | 0.00 | 0.00 | 0.00 | 65 | 1013.1 |
| 20260502192035 | 61 | 9 | 1.0 | 2.0 | 0.00 | 0.00 | 0.00 | 65 | 1013.1 |
| 20260502191537 | 61 | 17 | 0.0 | 2.0 | 0.00 | 0.00 | 0.00 | 65 | 1013.2 |
| 20260502191028 | 61 | 17 | 0.0 | 2.0 | 0.00 | 0.00 | 0.00 | 64 | 1013.2 |
| 20260502190557 | 61 | 17 | 1.0 | 2.0 | 0.00 | 0.00 | 0.00 | 63 | 1013.2 |
| 20260502190103 | 62 | 17 | 1.0 | 4.0 | 0.00 | 0.00 | 0.00 | 63 | 1013.3 |
| 20260502185535 | 62 | 17 | 2.0 | 5.0 | 0.00 | 0.00 | 0.00 | 63 | 1013.2 |
| 20260502185032 | 62 | 5 | 2.0 | 5.0 | 0.00 | 0.00 | 0.00 | 63 | 1013.2 |
| 20260502184531 | 63 | 19 | 2.0 | 5.0 | 0.00 | 0.00 | 0.00 | 62 | 1013.2 |
| 20260502184042 | 63 | 14 | 1.0 | 5.0 | 0.00 | 0.00 | 0.00 | 61 | 1013.2 |
| 20260502183604 | 63 | 13 | 2.0 | 6.0 | 0.00 | 0.00 | 0.00 | 62 | 1013.2 |
| 20260502183038 | 63 | 315 | 2.0 | 5.0 | 0.00 | 0.00 | 0.00 | 61 | 1013.2 |
| 20260502182618 | 63 | 360 | 3.0 | 5.0 | 0.00 | 0.00 | 0.00 | 61 | 1013.3 |
| 20260502182041 | 63 | 17 | 2.0 | 5.0 | 0.00 | 0.00 | 0.00 | 61 | 1013.2 |
| 20260502181556 | 64 | 9 | 1.0 | 3.0 | 0.00 | 0.00 | 0.00 | 61 | 1013.3 |
| 20260502181051 | 64 | 303 | 2.0 | 4.0 | 0.00 | 0.00 | 0.00 | 60 | 1013.2 |
| 20260502180535 | 65 | 333 | 1.0 | 5.0 | 0.00 | 0.00 | 0.00 | 58 | 1013.2 |
| 20260502164038 | 70 | 20 | 1.0 | 8.0 | 0.00 | 0.00 | 0.00 | 54 | 1014.1 |
| 20260502163602 | 70 | 30 | 2.0 | 7.0 | 0.00 | 0.00 | 0.00 | 54 | 1014.2 |
| 20260502163050 | 71 | 320 | 2.0 | 7.0 | 0.00 | 0.00 | 0.00 | 53 | 1014.2 |
| 20260502162539 | 71 | 334 | 1.0 | 4.0 | 0.00 | 0.00 | 0.00 | 54 | 1014.3 |
| 20260502162028 | 71 | 355 | 2.0 | 6.0 | 0.00 | 0.00 | 0.00 | 53 | 1014.3 |
| 20260502161548 | 72 | 320 | 2.0 | 6.0 | 0.00 | 0.00 | 0.00 | 51 | 1014.4 |
| 20260502161039 | 72 | 319 | 1.0 | 3.0 | 0.00 | 0.00 | 0.00 | 53 | 1014.4 |
| 20260502160541 | 72 | 9 | 1.0 | 3.0 | 0.00 | 0.00 | 0.00 | 54 | 1014.5 |
| 20260502151533 | 72 | 244 | 2.0 | 5.0 | 0.00 | 0.00 | 0.00 | 56 | 1014.8 |
| 20260502151116 | 72 | 211 | 2.0 | 5.0 | 0.00 | 0.00 | 0.00 | 57 | 1014.9 |
| 20260502150553 | 72 | 225 | 2.0 | 4.0 | 0.00 | 0.00 | 0.00 | 57 | 1014.9 |
| 20260502130602 | 72 | 148 | 4.0 | 6.0 | 0.00 | 0.00 | 0.00 | 59 | 1016.3 |
| 20260502123549 | 71 | 242 | 5.0 | 9.0 | 0.00 | 0.00 | 0.00 | 63 | 1016.5 |
| 20260502123032 | 72 | 227 | 5.0 | 9.0 | 0.00 | 0.00 | 0.00 | 61 | 1016.5 |
| 20260502122546 | 72 | 284 | 2.0 | 7.0 | 0.00 | 0.00 | 0.00 | 64 | 1016.6 |
| 20260502122044 | 71 | 333 | 3.0 | 7.0 | 0.00 | 0.00 | 0.00 | 64 | 1016.7 |
| 20260502121532 | 71 | 221 | 3.0 | 10.0 | 0.00 | 0.00 | 0.00 | 64 | 1016.7 |
| 20260502121047 | 71 | 193 | 4.0 | 10.0 | 0.00 | 0.00 | 0.00 | 63 | 1016.7 |
| 20260502120557 | 71 | 290 | 2.0 | 7.0 | 0.00 | 0.00 | 0.00 | 68 | 1016.7 |
| 20260502115622 | 69 | 191 | 3.0 | 9.0 | 0.00 | 0.00 | 0.00 | 67 | 1016.9 |
| 20260502115044 | 70 | 221 | 5.0 | 9.0 | 0.00 | 0.00 | 0.00 | 65 | 1016.9 |
| 20260502114536 | 70 | 254 | 4.0 | 10.0 | 0.00 | 0.00 | 0.00 | 65 | 1016.8 |
| 20260502114031 | 70 | 159 | 5.0 | 10.0 | 0.00 | 0.00 | 0.00 | 65 | 1016.9 |
| 20260502113559 | 71 | 224 | 4.0 | 10.0 | 0.00 | 0.00 | 0.00 | 65 | 1017.1 |
| 20260502113044 | 71 | 227 | 3.0 | 10.0 | 0.00 | 0.00 | 0.00 | 68 | 1017.0 |
| 20260502112608 | 70 | 225 | 4.0 | 9.0 | 0.00 | 0.00 | 0.00 | 69 | 1017.1 |
| 20260502112039 | 70 | 203 | 4.0 | 9.0 | 0.00 | 0.00 | 0.00 | 67 | 1017.1 |
| 20260502111626 | 68 | 173 | 5.0 | 10.0 | 0.00 | 0.00 | 0.00 | 70 | 1017.2 |
| 20260502111051 | 68 | 216 | 6.0 | 10.0 | 0.00 | 0.00 | 0.00 | 71 | 1017.2 |
| 20260502110557 | 68 | 195 | 4.0 | 8.0 | 0.00 | 0.00 | 0.00 | 71 | 1017.2 |
| 20260502110119 | 68 | 121 | 2.0 | 10.0 | 0.00 | 0.00 | 0.00 | 72 | 1017.2 |
| 20260502105543 | 68 | 207 | 3.0 | 10.0 | 0.00 | 0.00 | 0.00 | 71 | 1017.2 |
| 20260502105051 | 67 | 267 | 3.0 | 9.0 | 0.00 | 0.00 | 0.00 | 73 | 1017.3 |
| 20260502104539 | 67 | 169 | 4.0 | 10.0 | 0.00 | 0.00 | 0.00 | 72 | 1017.3 |
| 20260502104037 | 67 | 188 | 4.0 | 10.0 | 0.00 | 0.00 | 0.00 | 72 | 1017.3 |
| 20260502103535 | 67 | 180 | 4.0 | 9.0 | 0.00 | 0.00 | 0.00 | 72 | 1017.3 |
| 20260502103034 | 67 | 211 | 4.0 | 9.0 | 0.00 | 0.00 | 0.00 | 71 | 1017.4 |
| 20260502102625 | 67 | 206 | 2.0 | 7.0 | 0.00 | 0.00 | 0.00 | 72 | 1017.3 |
| 20260502102041 | 67 | 217 | 4.0 | 7.0 | 0.00 | 0.00 | 0.00 | 72 | 1017.3 |
| 20260502101058 | 67 | 218 | 4.0 | 7.0 | 0.00 | 0.00 | 0.00 | 73 | 1017.4 |
| 20260502100544 | 67 | 220 | 4.0 | 9.0 | 0.00 | 0.00 | 0.00 | 72 | 1017.4 |
| 20260502091108 | 67 | 171 | 4.0 | 7.0 | 0.00 | 0.00 | 0.00 | 71 | 1017.6 |
| 20260502090534 | 67 | 254 | 3.0 | 7.0 | 0.00 | 0.00 | 0.00 | 74 | 1017.6 |